Location: Eastlake (historical)
(39.0077°N, 122.6678°W)
Time: 04:45:27
(UTC+00:00)

SAR-Lupe-4 - Pass Details

Date: 25 November 2020
Orbit: 481 x 484 km, 98.2° (Epoch: 09 January)

Event Time Altitude Azimuth Distance (km) Brightness Sun altitude
Rises 13:13:05 0° 160° (SSE) 2,527 7.6 -21.4°
Reaches altitude 10° 13:15:09 10° 157° (SSE) 1,652 6.7 -21.0°
Maximum altitude 13:18:40 65° 75° (ENE) 534 3.9 -20.4°
Enters shadow 13:20:43 23° 359° (N) 1,060 5.1 -20.0°
